Tracking 20370 objects as of 20-Feb-2020
HD Live streaming from Space Station
objects crossing your sky now
Track the group of recently launched Starlink satellites

COSMOS 1633

Track COSMOS 1633 now!
10-day predictions
COSMOS 1633 is classified as:


NORAD ID: 15592
Int'l Code: 1985-020A
Perigee: 472.6 km
Apogee: 488.6 km
Inclination: 82.5 °
Period: 94.1 minutes
Semi major axis: 6851 km
RCS: 7.2924 m2 (large)
Launch date: March 5, 1985
Source: Commonwealth of Independent States (former USSR) (CIS)
Launch site: PLESETSK MISSILE AND SPACE COMPLEX (PKMTR)
aabbcc
Your satellite tracking list
Your tracking list is empty




NASA's NSSDC Master Catalog

Two Line Element Set (TLE):
1 15592U 85020A   20050.49605818 +.00001285 +00000-0 +41882-4 0  9998
2 15592 082.5356 058.1884 0011676 320.2145 039.8239 15.30798437913425
Source of the keplerian elements: AFSPC